This is the latest recevied weather packets stored in our database for station/object NK7I. If no packets are shown the sender has not sent any weather packets the latest 10 day(s).
| Time | Temp. | Humidity | Pressure | Rain* | Wind** | Luminosity | Snow |
|---|---|---|---|---|---|---|---|
| 1777778482 | 17.22° C | 50% | 1012.3 hPa | 0 mm | - | 0 W/m² | - |
| 1777778182 | 17.78° C | 50% | 1012.3 hPa | 0 mm | - | 0 W/m² | - |
| 1777777882 | 18.33° C | 50% | 1012.2 hPa | 0 mm | - | 0 W/m² | - |
| 1777777582 | 18.89° C | 48% | 1012.3 hPa | 0 mm | - | 0 W/m² | - |
| 1777777282 | 19.44° C | 50% | 1012.2 hPa | 0 mm | - | 5 W/m² | - |
| 1777776982 | 20° C | 50% | 1012.3 hPa | 0 mm | - | 7 W/m² | - |
| 1777776682 | 20.56° C | 43% | 1012.3 hPa | 0 mm | - | 11 W/m² | - |
| 1777776382 | 20.56° C | 45% | 1012.2 hPa | 0 mm | - | 14 W/m² | - |
| 1777776083 | 21.11° C | 43% | 1012.2 hPa | 0 mm | - | 16 W/m² | - |
| 1777775782 | 21.11° C | 43% | 1012.1 hPa | 0 mm | - | 19 W/m² | - |
| 1777775482 | 21.11° C | 41% | 1012.1 hPa | 0 mm | - | 21 W/m² | - |
| 1777775183 | 21.67° C | 42% | 1012.1 hPa | 0 mm | - | 25 W/m² | - |
| 1777774882 | 21.67° C | 41% | 1012 hPa | 0 mm | - | 32 W/m² | - |
| 1777774582 | 21.67° C | 40% | 1012 hPa | 0 mm | - | 33 W/m² | - |
| 1777774282 | 22.22° C | 39% | 1012 hPa | 0 mm | - | 40 W/m² | - |
| 1777773982 | 22.22° C | 39% | 1012 hPa | 0 mm | - | 49 W/m² | - |
| 1777773682 | 22.22° C | 39% | 1012 hPa | 0 mm | - | 47 W/m² | - |
| 1777773382 | 22.78° C | 39% | 1012.1 hPa | 0 mm | - | 56 W/m² | - |
| 1777773082 | 22.78° C | 38% | 1012 hPa | 0 mm | - | 79 W/m² | - |
| 1777772782 | 22.78° C | 37% | 1012 hPa | 0 mm | - | 83 W/m² | - |
| 1777772482 | 22.78° C | 36% | 1012 hPa | 0 mm | - | 53 W/m² | - |
| 1777772182 | 22.78° C | 36% | 1012 hPa | 0 mm | - | 76 W/m² | - |
| 1777771882 | 23.33° C | 37% | 1012.1 hPa | 0 mm | - | 155 W/m² | - |
| 1777771582 | 23.33° C | 35% | 1012 hPa | 0 mm | - | 151 W/m² | - |
| 1777771283 | 23.33° C | 40% | 1011.9 hPa | 0 mm | - | 192 W/m² | - |
* Rain latest hour (hover to see other rain measurements)
** Current wind speed in m/s (hover to see current wind gust speed)